Time,TemperatureF,DewpointF,PressureIn,WindDirection,WindDirectionDegrees,WindSpeedMPH,WindSpeedGustMPH,Humidity,HourlyPrecipIn,Conditions,Clouds,dailyrainin,SoftwareType,DateUTC
2013-03-20 00:03:00,40.0,21.0,-100.00,WNW,290,6.0,16.0,47,0.00,,,-99.99,,2013-03-20 04:03:00,
2013-03-20 00:12:00,40.0,21.0,-100.00,WNW,290,9.0,17.0,46,0.00,,,-99.99,,2013-03-20 04:12:00,
2013-03-20 00:23:00,40.0,21.0,-100.00,WNW,290,9.0,17.0,46,0.00,,,-99.99,,2013-03-20 04:23:00,
2013-03-20 00:32:00,41.0,20.0,-100.00,WNW,300,10.0,19.0,43,0.00,,,-99.99,,2013-03-20 04:32:00,
2013-03-20 00:43:00,41.0,19.0,-100.00,WNW,290,11.0,35.0,40,0.00,,,-99.99,,2013-03-20 04:43:00,
2013-03-20 00:52:00,41.0,19.0,-100.00,WNW,290,11.0,35.0,40,0.00,,,-99.99,,2013-03-20 04:52:00,
2013-03-20 01:03:00,41.0,18.0,-100.00,WSW,250,12.0,26.0,39,0.00,,,-99.99,,2013-03-20 05:03:00,
2013-03-20 01:13:00,40.0,18.0,-100.00,NW,315,10.0,26.0,40,0.00,,,-99.99,,2013-03-20 05:13:00,
2013-03-20 01:23:00,40.0,18.0,-100.00,NW,315,10.0,26.0,40,0.00,,,-99.99,,2013-03-20 05:23:00,
2013-03-20 01:32:00,39.0,18.0,-100.00,West,270,6.0,19.0,42,0.00,,,-99.99,,2013-03-20 05:32:00,
2013-03-20 01:42:00,38.0,18.0,-100.00,WNW,285,7.0,13.0,44,0.00,,,-99.99,,2013-03-20 05:42:00,
2013-03-20 01:52:00,38.0,18.0,-100.00,WNW,285,7.0,13.0,44,0.00,,,-99.99,,2013-03-20 05:52:00,
2013-03-20 02:03:00,38.0,19.0,-100.00,WNW,295,9.0,16.0,45,0.00,,,-99.99,,2013-03-20 06:03:00,
2013-03-20 02:12:00,38.0,18.0,-100.00,WNW,285,8.0,16.0,44,0.00,,,-99.99,,2013-03-20 06:12:00,
2013-03-20 02:22:00,38.0,18.0,-100.00,WNW,285,8.0,16.0,44,0.00,,,-99.99,,2013-03-20 06:22:00,
2013-03-20 02:32:00,38.0,18.0,-100.00,WSW,250,7.0,17.0,43,0.00,,,-99.99,,2013-03-20 06:32:00,
2013-03-20 02:42:00,38.0,17.0,-100.00,WNW,285,9.0,24.0,41,0.00,,,-99.99,,2013-03-20 06:42:00,
2013-03-20 02:52:00,38.0,17.0,-100.00,WNW,290,7.0,21.0,41,0.00,,,-99.99,,2013-03-20 06:52:00,
2013-03-20 03:02:00,38.0,17.0,-100.00,WNW,290,7.0,21.0,41,0.00,,,-99.99,,2013-03-20 07:02:00,
2013-03-20 03:12:00,38.0,16.0,-100.00,WNW,290,7.0,16.0,41,0.00,,,-99.99,,2013-03-20 07:12:00,
2013-03-20 03:22:00,38.0,16.0,-100.00,WNW,290,7.0,16.0,41,0.00,,,-99.99,,2013-03-20 07:22:00,
2013-03-20 03:32:00,38.0,17.0,-100.00,WNW,285,7.0,14.0,42,0.00,,,-99.99,,2013-03-20 07:32:00,
2013-03-20 03:42:00,37.0,16.0,-100.00,West,275,6.0,12.0,42,0.00,,,-99.99,,2013-03-20 07:42:00,
2013-03-20 03:52:00,37.0,16.0,-100.00,WSW,245,5.0,12.0,42,0.00,,,-99.99,,2013-03-20 07:52:00,
2013-03-20 04:02:00,37.0,16.0,-100.00,WSW,245,5.0,12.0,42,0.00,,,-99.99,,2013-03-20 08:02:00,
2013-03-20 04:12:00,36.0,16.0,-100.00,West,280,4.0,8.0,44,0.00,,,-99.99,,2013-03-20 08:12:00,
2013-03-20 04:22:00,35.0,16.0,-100.00,WSW,250,4.0,12.0,45,0.00,,,-99.99,,2013-03-20 08:22:00,
2013-03-20 04:32:00,35.0,16.0,-100.00,WSW,250,4.0,12.0,45,0.00,,,-99.99,,2013-03-20 08:32:00,
2013-03-20 04:42:00,35.0,16.0,-100.00,West,275,5.0,10.0,45,0.00,,,-99.99,,2013-03-20 08:42:00,
2013-03-20 04:52:00,35.0,16.0,-100.00,West,275,4.0,9.0,45,0.00,,,-99.99,,2013-03-20 08:52:00,
2013-03-20 05:02:00,35.0,16.0,-100.00,West,275,4.0,9.0,45,0.00,,,-99.99,,2013-03-20 09:02:00,
2013-03-20 05:12:00,35.0,16.0,-100.00,West,270,5.0,11.0,45,0.00,,,-99.99,,2013-03-20 09:12:00,
2013-03-20 05:22:00,35.0,16.0,-100.00,West,270,5.0,11.0,45,0.00,,,-99.99,,2013-03-20 09:22:00,
2013-03-20 05:33:00,36.0,17.0,-100.00,West,275,9.0,14.0,45,0.00,,,-99.99,,2013-03-20 09:33:00,
2013-03-20 05:43:00,35.0,16.0,-100.00,WNW,300,6.0,12.0,45,0.00,,,-99.99,,2013-03-20 09:43:00,
2013-03-20 05:52:00,36.0,16.0,-100.00,West,275,9.0,14.0,44,0.00,,,-99.99,,2013-03-20 09:52:00,
2013-03-20 06:03:00,36.0,16.0,-100.00,West,275,9.0,14.0,44,0.00,,,-99.99,,2013-03-20 10:03:00,
2013-03-20 06:12:00,35.0,16.0,-100.00,WNW,295,7.0,17.0,44,0.00,,,-99.99,,2013-03-20 10:12:00,
2013-03-20 06:23:00,35.0,16.0,-100.00,WNW,295,7.0,17.0,44,0.00,,,-99.99,,2013-03-20 10:23:00,
2013-03-20 06:33:00,35.0,16.0,-100.00,West,280,6.0,14.0,45,0.00,,,-99.99,,2013-03-20 10:33:00,
2013-03-20 06:42:00,35.0,16.0,-100.00,WNW,295,6.0,17.0,45,0.00,,,-99.99,,2013-03-20 10:42:00,
2013-03-20 06:52:00,35.0,16.0,-100.00,WNW,295,6.0,17.0,45,0.00,,,-99.99,,2013-03-20 10:52:00,
2013-03-20 07:03:00,35.0,16.0,-100.00,WSW,255,4.0,10.0,45,0.00,,,-99.99,,2013-03-20 11:03:00,
2013-03-20 07:12:00,35.0,15.0,-100.00,WNW,300,4.0,10.0,45,0.00,,,-99.99,,2013-03-20 11:12:00,
2013-03-20 07:22:00,35.0,15.0,-100.00,West,275,3.0,7.0,45,0.00,,,-99.99,,2013-03-20 11:22:00,
2013-03-20 07:32:00,35.0,15.0,-100.00,West,275,3.0,7.0,45,0.00,,,-99.99,,2013-03-20 11:32:00,
2013-03-20 07:42:00,35.0,15.0,-100.00,NE,50,2.0,7.0,45,0.00,,,-99.99,,2013-03-20 11:42:00,
2013-03-20 07:52:00,34.0,16.0,-100.00,South,170,0.0,6.0,47,0.00,,,-99.99,,2013-03-20 11:52:00,
2013-03-20 08:02:00,34.0,16.0,-100.00,South,170,0.0,6.0,47,0.00,,,-99.99,,2013-03-20 12:02:00,
2013-03-20 08:12:00,34.0,16.0,-100.00,South,185,2.0,7.0,48,0.00,,,-99.99,,2013-03-20 12:12:00,
2013-03-20 08:22:00,34.0,16.0,-100.00,South,185,2.0,7.0,48,0.00,,,-99.99,,2013-03-20 12:22:00,
2013-03-20 08:32:00,34.0,17.0,-100.00,NW,305,2.0,7.0,48,0.00,,,-99.99,,2013-03-20 12:32:00,
2013-03-20 08:42:00,36.0,17.0,-100.00,SW,235,1.0,6.0,46,0.00,,,-99.99,,2013-03-20 12:42:00,
2013-03-20 08:52:00,36.0,17.0,-100.00,SW,235,1.0,6.0,46,0.00,,,-99.99,,2013-03-20 12:52:00,
2013-03-20 09:03:00,37.0,18.0,-100.00,South,180,0.0,6.0,46,0.00,,,-99.99,,2013-03-20 13:03:00,
2013-03-20 09:12:00,39.0,19.0,-100.00,South,175,1.0,4.0,44,0.00,,,-99.99,,2013-03-20 13:12:00,
2013-03-20 09:22:00,39.0,19.0,-100.00,South,175,1.0,4.0,44,0.00,,,-99.99,,2013-03-20 13:22:00,
2013-03-20 09:32:00,40.0,19.0,-100.00,ESE,105,1.0,5.0,44,0.00,,,-99.99,,2013-03-20 13:32:00,
2013-03-20 09:42:00,40.0,19.0,-100.00,SSW,210,2.0,6.0,42,0.00,,,-99.99,,2013-03-20 13:42:00,
2013-03-20 09:52:00,40.0,19.0,-100.00,SSW,210,2.0,6.0,42,0.00,,,-99.99,,2013-03-20 13:52:00,
2013-03-20 10:03:00,39.0,18.0,-100.00,NW,310,10.0,17.0,41,0.00,,,-99.99,,2013-03-20 14:03:00,
2013-03-20 10:12:00,40.0,18.0,-100.00,West,265,3.0,17.0,40,0.00,,,-99.99,,2013-03-20 14:12:00,
2013-03-20 10:23:00,42.0,19.0,-100.00,WSW,250,3.0,18.0,40,0.00,,,-99.99,,2013-03-20 14:23:00,
2013-03-20 10:34:00,42.0,19.0,-100.00,WSW,250,3.0,18.0,40,0.00,,,-99.99,,2013-03-20 14:34:00,
2013-03-20 10:42:00,43.0,20.0,-100.00,WSW,250,4.0,12.0,39,0.00,,,-99.99,,2013-03-20 14:42:00,
2013-03-20 10:53:00,43.0,20.0,-100.00,WSW,250,4.0,12.0,39,0.00,,,-99.99,,2013-03-20 14:53:00,
2013-03-20 11:03:00,43.0,19.0,-100.00,West,280,6.0,24.0,38,0.00,,,-99.99,,2013-03-20 15:03:00,
2013-03-20 11:12:00,43.0,19.0,-100.00,West,280,11.0,19.0,38,0.00,,,-99.99,,2013-03-20 15:12:00,
2013-03-20 11:22:00,43.0,19.0,-100.00,West,280,11.0,19.0,38,0.00,,,-99.99,,2013-03-20 15:22:00,
2013-03-20 11:33:00,43.0,18.0,-100.00,West,265,10.0,20.0,36,0.00,,,-99.99,,2013-03-20 15:33:00,
2013-03-20 11:43:00,43.0,18.0,-100.00,West,260,9.0,19.0,36,0.00,,,-99.99,,2013-03-20 15:43:00,
2013-03-20 11:53:00,43.0,18.0,-100.00,West,260,9.0,19.0,36,0.00,,,-99.99,,2013-03-20 15:53:00,
2013-03-20 12:03:00,44.0,18.0,-100.00,West,270,8.0,19.0,35,0.00,,,-99.99,,2013-03-20 16:03:00,
2013-03-20 12:12:00,44.0,18.0,-100.00,WNW,295,7.0,18.0,35,0.00,,,-99.99,,2013-03-20 16:12:00,
2013-03-20 12:23:00,44.0,18.0,-100.00,WNW,295,7.0,18.0,35,0.00,,,-99.99,,2013-03-20 16:23:00,
2013-03-20 12:33:00,47.0,20.0,-100.00,WNW,300,5.0,13.0,35,0.00,,,-99.99,,2013-03-20 16:33:00,
2013-03-20 12:43:00,44.0,18.0,-100.00,NW,310,10.0,22.0,34,0.00,,,-99.99,,2013-03-20 16:43:00,
2013-03-20 12:53:00,44.0,18.0,-100.00,NW,310,10.0,22.0,34,0.00,,,-99.99,,2013-03-20 16:53:00,
2013-03-20 13:03:00,47.0,20.0,-100.00,West,265,5.0,17.0,34,0.00,,,-99.99,,2013-03-20 17:03:00,
2013-03-20 13:12:00,46.0,19.0,-100.00,WNW,295,9.0,20.0,34,0.00,,,-99.99,,2013-03-20 17:12:00,
2013-03-20 13:22:00,46.0,19.0,-100.00,WNW,295,9.0,20.0,34,0.00,,,-99.99,,2013-03-20 17:22:00,
2013-03-20 13:32:00,46.0,18.0,-100.00,WNW,290,11.0,17.0,33,0.00,,,-99.99,,2013-03-20 17:32:00,
2013-03-20 13:42:00,48.0,20.0,-100.00,WSW,250,7.0,16.0,32,0.00,,,-99.99,,2013-03-20 17:42:00,
2013-03-20 13:52:00,48.0,20.0,-100.00,WSW,250,7.0,16.0,32,0.00,,,-99.99,,2013-03-20 17:52:00,
2013-03-20 14:02:00,48.0,20.0,-100.00,SW,235,4.0,16.0,33,0.00,,,-99.99,,2013-03-20 18:02:00,
2013-03-20 14:12:00,49.0,21.0,-100.00,WSW,245,4.0,21.0,33,0.00,,,-99.99,,2013-03-20 18:12:00,
2013-03-20 14:22:00,49.0,21.0,-100.00,WSW,245,4.0,21.0,33,0.00,,,-99.99,,2013-03-20 18:22:00,
2013-03-20 14:33:00,50.0,21.0,-100.00,SSW,195,7.0,17.0,31,0.00,,,-99.99,,2013-03-20 18:33:00,
2013-03-20 14:42:00,50.0,21.0,-100.00,WNW,295,7.0,21.0,31,0.00,,,-99.99,,2013-03-20 18:42:00,
2013-03-20 14:52:00,50.0,21.0,-100.00,WNW,295,7.0,21.0,31,0.00,,,-99.99,,2013-03-20 18:52:00,
2013-03-20 15:02:00,51.0,21.0,-100.00,SW,230,4.0,20.0,31,0.00,,,-99.99,,2013-03-20 19:02:00,
2013-03-20 15:12:00,51.0,20.0,-100.00,West,275,4.0,15.0,30,0.00,,,-99.99,,2013-03-20 19:12:00,
2013-03-20 15:22:00,49.0,19.0,-100.00,WSW,255,4.0,17.0,30,0.00,,,-99.99,,2013-03-20 19:22:00,
2013-03-20 15:32:00,49.0,19.0,-100.00,WSW,255,4.0,17.0,30,0.00,,,-99.99,,2013-03-20 19:32:00,
2013-03-20 15:42:00,51.0,21.0,-100.00,SW,230,5.0,11.0,30,0.00,,,-99.99,,2013-03-20 19:42:00,
2013-03-20 15:52:00,51.0,20.0,-100.00,SSW,200,4.0,13.0,30,0.00,,,-99.99,,2013-03-20 19:52:00,
2013-03-20 16:02:00,51.0,20.0,-100.00,SSW,200,4.0,13.0,30,0.00,,,-99.99,,2013-03-20 20:02:00,
2013-03-20 16:13:00,50.0,19.0,-100.00,NW,310,6.0,21.0,29,0.00,,,-99.99,,2013-03-20 20:13:00,
2013-03-20 16:22:00,50.0,19.0,-100.00,NW,310,6.0,21.0,29,0.00,,,-99.99,,2013-03-20 20:22:00,
2013-03-20 16:32:00,51.0,20.0,-100.00,WSW,245,6.0,17.0,29,0.00,,,-99.99,,2013-03-20 20:32:00,
2013-03-20 16:42:00,52.0,19.0,-100.00,West,280,6.0,26.0,28,0.00,,,-99.99,,2013-03-20 20:42:00,
2013-03-20 16:52:00,52.0,19.0,-100.00,West,280,6.0,26.0,28,0.00,,,-99.99,,2013-03-20 20:52:00,
2013-03-20 17:02:00,51.0,19.0,-100.00,WNW,285,12.0,20.0,28,0.00,,,-99.99,,2013-03-20 21:02:00,
2013-03-20 17:12:00,51.0,19.0,-100.00,West,280,12.0,24.0,28,0.00,,,-99.99,,2013-03-20 21:12:00,
2013-03-20 17:22:00,51.0,19.0,-100.00,West,280,12.0,24.0,28,0.00,,,-99.99,,2013-03-20 21:22:00,
2013-03-20 17:33:00,51.0,19.0,-100.00,SW,230,5.0,21.0,28,0.00,,,-99.99,,2013-03-20 21:33:00,
2013-03-20 17:42:00,51.0,19.0,-100.00,West,275,7.0,17.0,28,0.00,,,-99.99,,2013-03-20 21:42:00,
2013-03-20 17:52:00,50.0,18.0,-100.00,SW,220,5.0,14.0,28,0.00,,,-99.99,,2013-03-20 21:52:00,
2013-03-20 18:03:00,50.0,18.0,-100.00,SW,220,5.0,14.0,28,0.00,,,-99.99,,2013-03-20 22:03:00,
2013-03-20 18:13:00,50.0,18.0,-100.00,West,280,9.0,14.0,28,0.00,,,-99.99,,2013-03-20 22:13:00,
2013-03-20 18:23:00,50.0,18.0,-100.00,West,280,9.0,14.0,28,0.00,,,-99.99,,2013-03-20 22:23:00,
2013-03-20 18:33:00,50.0,18.0,-100.00,West,275,9.0,21.0,28,0.00,,,-99.99,,2013-03-20 22:33:00,
2013-03-20 18:42:00,50.0,18.0,-100.00,WNW,285,4.0,13.0,28,0.00,,,-99.99,,2013-03-20 22:42:00,
2013-03-20 18:52:00,49.0,17.0,-100.00,WSW,255,4.0,14.0,28,0.00,,,-99.99,,2013-03-20 22:52:00,
2013-03-20 19:03:00,49.0,17.0,-100.00,WSW,255,4.0,14.0,28,0.00,,,-99.99,,2013-03-20 23:03:00,
2013-03-20 19:12:00,49.0,18.0,-100.00,WSW,255,3.0,10.0,30,0.00,,,-99.99,,2013-03-20 23:12:00,
2013-03-20 19:22:00,49.0,18.0,-100.00,WSW,255,3.0,10.0,30,0.00,,,-99.99,,2013-03-20 23:22:00,
2013-03-20 19:32:00,49.0,18.0,-100.00,West,260,4.0,14.0,29,0.00,,,-99.99,,2013-03-20 23:32:00,
2013-03-20 19:42:00,49.0,18.0,-100.00,WNW,300,7.0,13.0,29,0.00,,,-99.99,,2013-03-20 23:42:00,
2013-03-20 19:52:00,49.0,18.0,-100.00,WNW,300,7.0,13.0,29,0.00,,,-99.99,,2013-03-20 23:52:00,
2013-03-20 20:03:00,47.0,18.0,-100.00,SW,235,2.0,12.0,31,0.00,,,-99.99,,2013-03-21 00:03:00,
2013-03-20 20:13:00,48.0,18.0,-100.00,WNW,285,9.0,13.0,30,0.00,,,-99.99,,2013-03-21 00:13:00,
2013-03-20 20:23:00,47.0,18.0,-100.00,WNW,300,5.0,13.0,31,0.00,,,-99.99,,2013-03-21 00:23:00,
2013-03-20 20:33:00,47.0,18.0,-100.00,WNW,300,5.0,13.0,31,0.00,,,-99.99,,2013-03-21 00:33:00,
2013-03-20 20:42:00,47.0,19.0,-100.00,WNW,290,4.0,16.0,32,0.00,,,-99.99,,2013-03-21 00:42:00,
2013-03-20 20:52:00,47.0,19.0,-100.00,WNW,290,4.0,16.0,32,0.00,,,-99.99,,2013-03-21 00:52:00,
2013-03-20 21:02:00,47.0,19.0,-100.00,WNW,290,6.0,11.0,33,0.00,,,-99.99,,2013-03-21 01:02:00,
2013-03-20 21:12:00,46.0,19.0,-100.00,WNW,300,4.0,11.0,34,0.00,,,-99.99,,2013-03-21 01:12:00,
2013-03-20 21:22:00,46.0,19.0,-100.00,WNW,300,4.0,11.0,34,0.00,,,-99.99,,2013-03-21 01:22:00,
2013-03-20 21:33:00,44.0,20.0,-100.00,West,275,6.0,10.0,37,0.00,,,-99.99,,2013-03-21 01:33:00,
2013-03-20 21:42:00,44.0,20.0,-100.00,ENE,60,4.0,12.0,38,0.00,,,-99.99,,2013-03-21 01:42:00,
2013-03-20 21:53:00,44.0,20.0,-100.00,ENE,60,4.0,12.0,38,0.00,,,-99.99,,2013-03-21 01:53:00,
2013-03-20 22:02:00,42.0,21.0,-100.00,North,350,4.0,13.0,43,0.00,,,-99.99,,2013-03-21 02:02:00,
2013-03-20 22:12:00,41.0,22.0,-100.00,NW,320,4.0,9.0,46,0.00,,,-99.99,,2013-03-21 02:12:00,
2013-03-20 22:22:00,41.0,22.0,-100.00,NW,320,4.0,9.0,46,0.00,,,-99.99,,2013-03-21 02:22:00,
2013-03-20 22:33:00,41.0,22.0,-100.00,North,355,3.0,12.0,48,0.00,,,-99.99,,2013-03-21 02:33:00,
2013-03-20 22:42:00,41.0,22.0,-100.00,North,355,3.0,12.0,48,0.00,,,-99.99,,2013-03-21 02:42:00,
2013-03-20 22:52:00,41.0,22.0,-100.00,North,355,3.0,12.0,48,0.00,,,-99.99,,2013-03-21 02:52:00,
2013-03-20 23:02:00,40.0,25.0,-100.00,WNW,295,3.0,10.0,54,0.00,,,-99.99,,2013-03-21 03:02:00,
2013-03-20 23:12:00,39.0,26.0,-100.00,NW,305,3.0,9.0,58,0.00,,,-99.99,,2013-03-21 03:12:00,
2013-03-20 23:22:00,39.0,26.0,-100.00,NW,305,3.0,9.0,58,0.00,,,-99.99,,2013-03-21 03:22:00,
2013-03-20 23:33:00,39.0,26.0,-100.00,North,5,2.0,6.0,60,0.00,,,-99.99,,2013-03-21 03:33:00,
2013-03-20 23:43:00,38.0,26.0,-100.00,NNE,30,0.0,6.0,61,0.00,,,-99.99,,2013-03-21 03:43:00,
2013-03-20 23:53:00,38.0,27.0,-100.00,NNW,335,1.0,7.0,63,0.00,,,-99.99,,2013-03-21 03:53:00,